Location: Limerick
(52.6800°N, 8.6400°W)
Time: 12:38:58
(UTC+01:00)

ISS - All Passes

Search period start: 02 September 2014 00:00
Search period end: 12 September 2014 00:00
Orbit: 414 x 419 km, 51.6° (Epoch: 02 September)

Date Brightness Start Highest point End Pass type
(mag) Time Alt. Az. Time Alt. Az. Time Alt. Az.
02 Sep - 11:47:11 10° SW 11:50:15 35° SSE 11:53:19 10° E daylight
02 Sep - 13:23:26 10° W 13:26:45 73° S 13:30:05 10° E daylight
02 Sep - 15:00:06 10° W 15:03:24 58° SSW 15:06:41 10° ESE daylight
02 Sep - 16:37:10 10° W 16:39:42 20° SSW 16:42:15 10° SSE daylight
03 Sep - 10:59:00 10° SSW 11:01:49 26° SSE 11:04:39 10° E daylight
03 Sep - 12:34:55 10° WSW 12:38:13 66° S 12:41:32 10° E daylight
03 Sep - 14:11:33 10° W 14:14:53 68° S 14:18:12 10° ESE daylight
03 Sep - 15:48:24 10° W 15:51:19 28° SSW 15:54:12 10° SSE daylight
04 Sep - 10:11:00 10° SSW 10:13:25 19° SE 10:15:50 10° E daylight
04 Sep - 11:46:25 10° WSW 11:49:41 55° SSE 11:52:58 10° E daylight
04 Sep - 13:22:59 10° W 13:26:19 74° S 13:29:39 10° E daylight
04 Sep - 14:59:44 10° W 15:02:51 37° SSW 15:05:58 10° SE daylight
04 Sep - 16:38:19 10° SW 16:38:53 10° SW 16:39:26 10° SSW daylight
05 Sep - 09:23:24 10° S 09:25:03 13° SE 09:26:42 10° ESE daylight
05 Sep - 10:57:59 10° SW 11:01:10 43° SSE 11:04:22 10° E daylight
05 Sep - 12:34:25 10° W 12:37:45 76° S 12:41:05 10° E daylight
05 Sep - 14:11:07 10° W 14:14:21 48° SSW 14:17:34 10° ESE daylight
05 Sep - 15:48:30 10° WSW 15:50:32 15° SW 15:52:33 10° S daylight
06 Sep - 10:09:37 10° SW 10:12:39 33° SSE 10:15:42 10° E daylight
06 Sep - 11:45:49 10° WSW 11:49:09 72° S 11:52:29 10° E daylight
06 Sep - 13:22:29 10° W 13:25:47 60° SSW 13:29:05 10° ESE daylight
06 Sep - 14:59:30 10° W 15:02:07 21° SSW 15:04:43 10° SSE daylight
07 Sep - 09:21:23 10° SSW 09:24:10 25° SSE 09:26:56 10° E daylight
07 Sep - 10:57:14 10° WSW 11:00:32 64° SSE 11:03:51 10° E daylight
07 Sep - 12:33:52 10° W 12:37:11 69° S 12:40:30 10° ESE daylight
07 Sep - 14:10:41 10° W 14:13:38 29° SSW 14:16:34 10° SE daylight
08 Sep - 08:33:22 10° S 08:35:42 18° SE 08:38:01 10° E daylight
08 Sep - 10:08:41 10° WSW 10:11:56 53° SSE 10:15:12 10° E daylight
08 Sep - 11:45:13 10° W 11:48:33 75° S 11:51:53 10° E daylight
08 Sep - 13:21:57 10° W 13:25:06 39° SSW 13:28:14 10° SE daylight
08 Sep - 15:00:08 10° WSW 15:01:09 11° SW 15:02:09 10° SSW daylight
09 Sep - 07:45:49 10° SSE 07:47:15 12° SE 07:48:42 10° ESE daylight
09 Sep - 09:20:10 10° SW 09:23:20 42° SSE 09:26:31 10° E daylight
09 Sep - 10:56:34 10° W 10:59:54 76° S 11:03:14 10° E daylight
09 Sep - 12:33:15 10° W 12:36:30 50° SSW 12:39:45 10° ESE daylight
09 Sep - 14:10:33 10° WSW 14:12:43 16° SW 14:14:52 10° S daylight
10 Sep - 08:31:45 10° SW 08:34:45 31° SSE 08:37:46 10° E daylight
10 Sep - 10:07:54 10° WSW 10:11:14 71° S 10:14:33 10° E daylight
10 Sep - 11:44:34 10° W 11:47:52 62° SSW 11:51:10 10° ESE daylight
10 Sep - 13:21:32 10° W 13:24:13 23° SSW 13:26:53 10° SSE daylight
11 Sep - 07:43:29 10° SSW 07:46:12 23° SSE 07:48:55 10° E daylight
11 Sep - 09:19:15 10° WSW 09:22:33 62° SSE 09:25:51 10° E daylight
11 Sep - 10:55:52 10° W 10:59:11 71° S 11:02:31 10° ESE daylight
11 Sep - 12:32:40 10° W 12:35:39 31° SSW 12:38:38 10° SE daylight
